Temp
23 25 27 27 29 32 31 28 28 26 25 23 23 23 22 21 21 20 17 16 16 17 16 15 13 13 13 13 13 13 13 13 13 14 14 14 15 14 15 15 15 15 15 15 15 15 17 17 17
25 26 27 30 30 31 28 28 25 24 23 23 23 24 23 19 20 19 17 16 16 16 16 15 13 12 12 12 12 12 12 12 13 13 13 14 14 14 14 14 14 14 14 14 14 15 15 16 17
25 27 30 31 32 30 28 26 23 23 23 23 22 22 21 18 18 18 16 16 16 16 15 15 13 12 11 11 11 11 11 12 12 12 13 13 13 13 14 14 14 14 14 14 14 14 15 15 16
28 30 31 30 29 25 26 24 23 23 23 23 23 20 19 17 17 16 16 16 16 16 15 14 13 12 11 11 11 11 10 11 11 12 12 12 12 13 13 13 14 14 14 13 13 13 14 15 15
29 31 31 30 25 24 23 23 24 23 22 22 22 20 18 17 16 16 16 16 16 15 14 14 13 12 11 10 10 10 10 10 10 10 10 11 11 12 12 12 13 13 13 13 13 13 14 14 15
30 31 31 31 26 23 23 23 23 22 22 21 21 20 18 17 16 16 16 16 16 15 14 13 12 11 11 10 9 9 9 9 9 9 9 9 10 10 10 11 12 12 12 12 12 12 13 13 14
29 30 30 29 25 23 22 22 22 21 20 18 21 20 19 17 15 15 16 16 15 14 14 13 12 11 11 10 9 9 9 8 8 8 8 8 8 9 9 10 10 10 10 11 11 12 13 13 13
29 30 28 28 25 23 21 20 20 20 18 19 19 18 17 16 15 16 16 16 15 14 13 12 12 11 10 10 10 9 9 8 8 8 8 8 8 9 10 10 10 10 10 10 11 11 12 13 13
28 29 29 26 26 22 20 19 19 19 18 17 17 17 16 15 16 16 16 15 14 13 12 12 11 10 10 9 10 9 8 8 7 7 8 7 7 8 9 9 9 9 9 9 10 11 12 12 12
27 28 23 23 23 21 21 20 19 19 18 17 17 17 16 16 16 16 15 14 14 13 12 11 10 9 9 9 9 8 7 7 6 6 6 5 6 6 7 8 9 9 9 9 9 10 10 11 11
24 24 21 21 22 21 19 18 19 18 16 15 15 15 16 15 15 15 14 13 13 12 11 10 10 9 8 8 7 6 7 6 5 5 5 5 5 5 6 6 7 8 9 9 10 11 11 12 12
22 21 21 20 20 19 18 17 16 16 14 15 15 15 15 15 14 14 13 13 12 12 11 10 9 8 8 7 7 7 7 6 5 5 5 5 5 5 5 5 5 6 7 8 9 10 11 11 12
21 20 20 19 19 18 18 16 15 14 15 15 15 16 15 15 14 13 12 12 11 11 11 10 9 8 7 7 7 7 7 6 5 5 5 5 5 4 4 4 5 5 6 6 7 9 10 10 11
21 20 19 18 18 17 17 16 16 15 15 16 16 16 15 14 13 13 12 11 11 11 10 9 8 7 7 6 6 6 6 6 7 6 5 5 5 4 4 4 4 4 4 5 5 6 8 10 11
21 19 19 18 18 17 18 16 14 15 16 16 16 16 15 14 13 13 11 11 10 10 9 9 8 8 7 7 7 7 7 7 6 5 5 6 5 4 4 3 3 4 4 4 4 5 5 8 10
22 22 21 19 18 18 17 18 14 15 16 15 16 16 15 14 13 12 11 10 10 9 9 8 8 7 7 7 7 7 7 6 5 5 5 5 4 4 3 3 3 3 3 3 4 4 4 6 8
22 25 24 19 19 18 17 18 14 15 15 15 16 16 15 14 13 12 11 10 9 9 8 8 8 7 7 7 7 6 6 5 4 4 4 4 4 4 3 3 3 3 3 3 4 4 4 4 6
26 26 24 23 19 18 18 18 15 14 15 15 15 15 14 14 13 11 10 10 9 9 8 8 7 7 6 6 6 6 5 4 4 4 4 4 3 3 3 3 3 3 3 3 3 3 4 4 4
23 24 23 19 18 18 19 18 15 15 15 15 15 14 14 13 12 11 10 10 9 9 8 7 7 6 6 5 5 5 4 4 4 4 4 4 2 2 2 2 2 3 3 3 3 3 3 4 4
23 24 23 18 17 17 19 17 16 15 15 15 15 14 13 13 12 11 10 9 9 8 7 7 7 6 6 5 5 4 4 4 3 4 2 3 2 2 2 2 2 3 3 3 3 3 3 4 4
22 22 22 20 17 17 18 18 15 15 15 15 15 14 13 12 12 11 10 9 9 8 7 7 7 6 6 5 5 4 4 3 3 2 2 2 2 2 2 1 2 2 2 3 3 3 3 4 4
23 18 18 19 18 22 18 21 17 17 15 15 15 14 13 12 11 10 9 9 8 7 7 6 6 6 5 5 4 3 3 2 2 2 1 2 2 2 2 2 1 2 2 3 3 3 3 3 3
20 17 18 19 19 20 18 19 16 15 16 14 14 13 12 12 11 10 9 8 8 7 6 6 6 6 5 5 5 4 3 3 3 2 2 2 2 2 2 2 2 1 2 3 3 3 3 3 3
17 19 19 19 20 21 20 19 19 18 14 13 13 12 12 11 11 9 8 7 7 7 6 6 6 6 5 5 5 5 4 4 3 2 1 1 2 2 2 1 1 1 1 2 3 3 3 3 3
20 22 24 23 23 24 18 18 19 14 12 12 11 12 12 11 10 9 8 7 6 7 6 6 6 6 6 5 5 5 5 4 4 3 1 1 2 2 1 1 1 1 1 2 3 4 3 3 3
20 20 22 21 23 23 17 20 16 14 13 13 12 11 11 10 10 9 8 7 7 7 6 6 6 6 6 5 5 5 5 5 4 4 2 2 2 2 2 1 1 1 1 2 3 4 4 4 3
20 21 17 19 20 19 23 17 14 13 14 14 12 12 11 10 9 9 8 7 7 6 6 6 6 6 6 5 5 5 5 3 3 4 4 3 3 3 2 1 1 0 1 1 3 4 4 4 4
18 17 19 20 18 19 24 23 20 13 14 13 12 11 10 10 9 9 8 7 7 6 6 6 6 6 6 5 5 5 4 2 2 4 4 4 3 3 2 1 1 2 2 2 3 4 5 5 5
19 20 18 18 19 20 21 21 18 14 12 11 12 11 10 9 9 9 8 8 7 6 6 6 6 6 6 5 5 5 3 2 2 4 4 4 4 3 3 1 2 3 3 4 4 5 6 5 5
16 18 18 19 19 18 16 18 15 13 12 10 11 11 10 9 9 8 8 8 7 7 6 6 6 6 5 5 5 5 3 3 3 4 4 4 4 4 4 3 2 2 2 3 3 3 4 5 5
Height
785 785 785 784 793 776 783 802 796 810 814 822 821 820 832 836 842 849 860 862 860 858 857 855 853 850 848 846 843 840 837 834 832 830 828 825 823 821 818 816 813 811 809 806 804 801 799 797 796
786 785 784 775 791 790 801 796 813 818 823 823 825 822 830 848 849 855 860 861 860 858 856 854 852 849 847 845 842 840 837 834 831 828 825 823 821 820 817 814 812 810 808 806 803 801 799 797 795
785 784 780 777 780 797 804 810 821 823 824 823 830 832 839 855 856 860 862 862 859 857 855 853 851 848 845 842 839 836 834 832 829 826 824 821 819 817 815 813 811 808 806 804 802 799 798 796 794
784 780 773 787 796 816 813 818 822 825 826 829 829 843 855 863 862 864 863 861 858 856 855 853 851 848 845 841 838 834 831 828 824 821 820 817 815 812 811 809 807 805 804 802 800 798 795 793 792
782 773 782 787 815 821 825 823 822 827 834 835 833 846 856 864 865 864 862 859 857 855 853 851 848 845 843 840 836 833 829 826 823 820 816 814 812 810 807 804 804 802 800 799 797 795 793 791 789
780 773 786 787 812 827 829 827 828 832 836 840 839 845 858 863 865 863 861 859 857 855 852 850 847 845 842 839 835 832 827 824 821 818 814 811 809 806 803 802 800 798 797 796 795 793 791 788 787
784 782 789 793 819 827 835 833 835 838 842 851 845 845 855 863 865 863 860 857 855 853 851 848 846 843 840 837 833 830 826 822 819 816 813 810 806 803 800 798 796 795 793 792 790 788 787 786 784
783 782 795 800 817 829 837 842 846 843 855 854 851 855 859 865 864 860 858 855 853 852 850 847 844 841 838 834 831 828 824 821 817 813 809 806 802 799 796 794 793 792 789 787 785 783 782 781 780
786 790 794 812 811 831 839 845 849 852 856 859 861 865 867 865 861 859 855 853 851 850 848 845 843 840 837 832 828 825 822 819 815 811 809 804 801 797 795 792 790 789 787 784 781 780 778 778 777
792 796 822 824 823 832 837 843 850 851 856 861 862 865 866 864 861 858 856 854 852 850 848 846 843 840 836 832 828 825 822 818 815 811 808 806 801 798 793 791 788 785 783 781 777 776 775 774 773
808 815 828 830 830 835 846 851 849 855 863 869 869 867 866 864 862 860 857 856 853 850 847 844 842 839 836 832 828 825 821 817 814 811 808 804 801 797 795 790 787 782 781 778 775 772 770 769 767
823 828 830 840 841 844 850 856 863 863 871 872 872 870 867 865 864 862 859 857 853 849 847 844 841 838 835 831 828 824 820 817 815 810 806 802 801 797 794 791 788 782 780 777 774 770 768 766 764
827 835 839 844 847 851 854 859 864 870 872 872 870 868 868 867 865 863 861 858 854 850 847 843 841 838 836 831 827 823 819 816 813 809 805 802 799 796 792 789 785 781 780 777 773 769 766 764 762
829 837 845 849 853 856 858 862 861 871 871 868 866 866 867 866 865 862 860 857 853 851 847 843 841 838 835 831 826 823 819 814 810 806 803 800 796 793 790 786 783 779 777 774 772 768 764 762 759
832 842 846 850 851 857 855 863 869 871 868 865 865 864 865 864 863 861 860 857 854 851 847 844 840 837 834 829 825 821 817 814 810 806 802 797 794 790 787 782 779 777 774 772 769 765 763 761 758
829 832 837 845 851 854 857 850 870 870 867 866 864 862 864 864 862 861 859 856 854 851 849 844 840 837 833 828 824 820 816 813 809 804 800 796 792 788 783 779 775 772 769 767 765 764 761 758 754
826 814 819 846 846 850 856 849 868 870 867 866 863 862 863 862 862 862 861 858 853 850 848 844 840 836 832 827 824 820 817 813 808 803 798 794 789 785 780 776 771 768 765 763 763 761 760 758 753
814 808 818 825 843 849 847 848 866 869 868 865 863 862 863 861 861 859 859 857 853 849 848 844 840 836 832 828 824 821 817 813 808 802 798 793 788 783 778 773 768 765 761 759 758 756 755 754 752
821 818 821 839 846 847 840 845 861 867 864 866 864 863 862 861 861 861 857 855 852 849 847 844 840 836 832 828 824 820 816 811 806 801 797 791 786 781 775 770 765 762 758 755 754 752 751 752 752
823 819 821 842 848 849 840 847 855 861 864 865 863 864 862 861 859 858 858 855 852 849 847 844 840 836 832 829 826 822 816 811 806 801 797 791 785 779 773 768 763 758 754 751 750 748 746 747 747
827 829 829 836 847 846 844 842 854 857 862 860 860 863 863 863 861 859 858 856 852 850 848 844 840 837 833 830 825 821 817 812 806 801 795 789 784 777 772 766 761 756 751 748 746 744 743 742 743
823 842 842 840 845 824 841 826 844 848 856 856 858 861 862 861 861 860 859 856 853 851 848 845 841 837 834 830 825 821 817 811 806 802 795 789 782 776 770 765 759 754 749 745 743 739 740 739 739
839 844 840 837 836 833 837 836 847 852 850 856 859 862 864 863 862 860 859 858 855 852 848 845 841 838 834 829 825 820 816 811 806 801 795 789 781 775 769 763 758 752 746 742 740 737 734 734 737
846 839 839 836 829 825 825 832 833 838 857 859 861 862 863 863 862 861 860 858 856 852 848 845 841 837 833 828 823 819 814 809 804 800 795 787 780 774 768 762 756 750 744 740 738 736 733 732 734
834 827 816 818 819 809 833 837 830 852 861 864 865 864 863 863 862 862 860 859 856 852 848 844 841 837 832 828 823 818 813 808 802 798 794 787 779 772 766 759 753 747 742 738 736 735 734 734 734
839 838 831 843 817 814 837 825 840 852 859 859 863 864 863 862 861 861 860 858 855 851 848 845 841 837 832 828 823 817 812 807 802 797 793 787 780 772 765 757 750 744 740 737 735 734 733 733 733
836 835 850 842 833 835 803 835 848 854 853 856 860 862 863 863 862 860 859 858 854 851 848 845 841 837 832 828 823 818 813 809 804 796 791 786 779 772 764 754 746 740 737 736 735 733 732 732 732
846 851 843 835 849 839 794 800 817 851 852 857 859 861 862 863 861 861 859 857 853 851 848 845 841 836 832 828 823 818 814 811 804 797 791 786 780 772 764 753 744 737 735 735 735 733 732 732 731
844 839 848 848 845 839 827 813 830 846 856 860 859 859 862 862 862 860 859 857 854 852 849 845 841 837 832 828 823 818 815 811 805 797 792 787 781 773 766 757 746 740 739 739 737 735 733 732 732
853 845 846 844 844 846 855 835 841 851 858 863 859 860 861 861 861 860 858 856 855 852 849 845 841 837 833 828 823 819 817 811 805 799 794 788 782 776 770 763 753 749 744 742 740 738 735 734 732
Wind_Speed
6 5 4 5 6 6 4 5 3 4 5 11 11 14 16 15 8 4 4 12 14 16 18 19 22 25 25 24 24 25 25 26 25 25 24 23 22 21 21 20 20 18 18 19 20 20 19 18 16
5 4 4 4 6 10 6 6 9 8 8 3 6 2 8 9 11 10 12 15 16 18 19 20 23 24 24 25 25 24 25 25 26 26 26 24 22 21 21 21 21 20 18 19 19 19 19 18 17
4 5 5 4 8 6 5 7 8 9 5 5 4 11 7 7 12 7 12 15 17 18 19 20 22 24 25 26 26 26 26 26 26 25 24 24 24 24 23 22 21 20 20 19 19 19 18 18 17
4 5 5 8 9 9 9 5 10 8 7 6 5 9 8 11 6 11 14 16 18 19 19 20 22 24 25 26 27 27 27 27 26 24 23 25 26 26 25 24 23 21 21 21 20 20 19 19 18
7 4 8 5 7 6 9 6 3 5 5 9 2 8 9 11 11 13 16 17 19 20 21 22 24 24 26 26 26 26 26 25 27 27 27 28 26 25 25 25 24 23 22 20 21 21 20 19 19
6 4 9 9 10 8 7 8 9 9 10 6 7 7 6 11 15 16 16 17 18 20 21 22 22 23 24 24 24 23 24 25 24 24 25 26 26 26 26 25 24 24 23 24 22 22 21 19 19
7 5 6 4 8 7 6 7 9 7 6 11 5 2 6 15 17 16 17 17 19 21 22 23 23 23 24 24 24 24 25 23 23 24 23 23 24 25 25 26 25 25 26 26 26 24 22 21 20
4 4 1 3 8 5 6 7 8 6 9 4 14 6 7 15 17 18 19 20 21 22 24 24 24 24 25 26 24 25 24 24 24 24 23 24 23 20 20 21 22 24 24 25 26 26 24 23 22
4 5 1 4 2 10 11 6 8 10 12 13 9 8 8 13 17 19 21 23 25 25 25 25 26 25 25 25 24 24 22 24 24 23 23 24 23 23 22 21 23 24 26 26 26 25 24 24 24
5 3 6 4 5 11 7 9 8 6 8 9 8 10 12 16 18 21 22 23 24 25 25 23 24 24 24 24 24 23 24 23 23 22 22 24 23 24 24 23 21 21 23 24 24 24 24 24 24
6 4 8 8 13 12 13 9 4 6 7 7 9 11 14 17 19 21 23 23 24 24 24 24 24 24 23 24 24 22 24 22 23 22 24 23 22 21 21 24 25 21 20 20 19 19 20 21 22
11 8 8 9 11 13 10 9 12 10 5 4 5 9 14 17 20 21 21 23 24 24 23 23 23 24 23 24 22 23 22 22 21 23 22 21 21 21 20 20 23 23 22 21 19 19 19 20 20
16 14 12 11 12 11 10 9 10 8 3 2 6 9 13 16 19 20 20 21 22 24 23 23 23 24 23 23 23 22 22 21 23 22 21 20 21 21 21 21 20 19 23 23 23 22 20 19 21
14 16 16 12 11 11 10 6 1 5 2 4 7 9 13 16 18 20 20 21 22 23 24 22 24 23 23 24 22 22 21 22 23 22 23 23 19 19 21 22 21 20 19 22 23 22 23 20 20
19 13 11 9 7 8 8 5 6 3 3 6 9 10 12 15 17 18 20 21 22 23 22 24 23 23 23 23 22 20 21 22 24 25 27 22 23 20 23 24 23 21 20 19 20 21 22 24 22
5 11 7 8 8 7 3 3 5 1 4 6 9 11 12 16 18 18 18 19 20 21 23 23 24 23 24 24 21 22 22 23 24 25 26 22 25 22 26 25 25 24 22 20 18 17 20 22 22
8 5 1 6 9 3 9 2 6 1 2 7 11 12 13 14 18 19 20 20 20 21 23 23 23 24 26 22 21 22 22 23 26 26 24 23 26 24 22 27 27 25 21 20 18 16 15 18 21
7 6 2 2 7 9 9 3 6 3 3 8 12 13 13 15 16 18 19 19 19 20 21 21 23 23 24 21 21 22 23 25 24 24 21 24 26 28 24 27 25 24 21 20 18 18 17 15 17
5 4 2 2 2 6 8 5 7 5 3 8 13 12 13 15 17 18 19 20 20 20 20 22 23 24 23 23 24 25 26 26 25 23 24 24 29 30 27 26 26 21 20 20 19 18 17 14 13
3 4 1 3 3 5 4 7 8 6 2 6 11 12 14 16 15 18 19 20 19 21 20 21 23 24 23 22 23 22 24 24 25 24 28 25 30 26 29 26 25 23 20 17 16 17 15 15 11
1 6 6 5 3 8 6 10 8 8 4 4 10 9 13 16 16 16 19 20 20 21 21 21 23 24 22 23 22 24 23 24 23 25 28 27 26 27 23 26 25 25 25 17 16 16 15 13 10
5 5 5 5 5 3 4 3 9 7 5 6 10 11 12 14 13 16 19 20 20 20 19 20 22 23 22 23 23 24 21 22 22 25 28 27 27 27 26 24 26 25 24 20 17 15 17 15 13
5 3 4 4 8 6 7 5 7 6 5 9 12 10 12 14 13 14 18 18 18 18 19 20 21 22 22 22 21 20 21 21 21 25 26 28 26 25 25 24 26 27 24 19 14 18 16 16 12
2 3 2 3 4 5 6 2 7 3 2 9 11 10 12 14 13 14 16 17 18 18 18 19 21 22 22 23 23 23 23 24 22 25 25 27 26 26 25 27 26 26 24 21 16 13 8 8 13
8 8 3 4 5 4 5 4 6 8 4 7 9 11 12 13 12 13 16 17 17 18 19 19 21 22 23 24 24 24 24 24 23 23 26 30 28 26 26 27 28 26 21 20 17 9 5 5 9
5 5 3 5 5 7 4 3 5 7 1 5 6 7 11 12 11 12 15 15 16 17 19 20 21 22 23 24 24 24 24 24 24 24 24 25 28 28 29 28 28 25 17 14 14 9 5 4 5
4 2 2 5 3 5 3 6 5 5 3 7 6 7 10 12 11 11 14 15 17 17 18 19 21 21 23 23 24 24 25 27 27 27 23 24 27 30 29 32 28 24 14 10 11 9 7 5 4
3 1 3 3 5 6 5 3 3 6 4 7 8 9 11 12 11 11 14 15 16 16 17 18 19 21 22 23 23 24 24 26 26 25 26 25 28 30 28 37 32 26 11 6 7 7 6 5 1
2 2 1 3 2 3 6 3 6 7 4 6 7 7 10 11 10 10 13 14 15 15 16 17 19 20 22 23 23 24 24 23 25 24 25 26 26 29 29 35 37 28 15 9 10 11 9 6 4
3 2 3 2 1 2 3 3 4 6 4 2 5 6 8 9 9 10 12 13 16 16 16 18 19 20 21 22 23 23 23 22 23 24 24 26 25 26 29 31 36 30 29 20 19 19 13 12 11
Wind_Direction
304 283 250 241 248 226 255 82 83 86 97 64 52 63 79 42 15 37 91 7 352 347 345 343 346 346 345 343 340 339 336 333 331 327 324 320 317 318 318 319 319 319 319 321 324 327 324 326 327
274 243 234 270 257 277 92 121 71 58 81 73 57 82 45 78 32 80 21 351 347 344 341 341 340 341 339 338 335 332 329 326 323 320 319 316 312 310 308 309 311 310 312 314 314 315 318 314 318
247 238 263 253 268 332 36 58 94 90 63 47 112 48 39 8 55 15 4 346 343 342 339 337 337 337 335 333 331 329 326 322 319 315 312 310 306 303 302 300 300 301 304 308 310 310 307 311 304
253 210 225 249 43 46 53 73 120 128 89 41 81 85 96 40 20 360 347 342 340 339 338 336 335 334 333 332 330 329 328 325 324 320 315 311 306 302 297 295 293 293 293 296 303 305 301 300 310
239 250 259 236 71 83 69 56 140 85 82 37 339 80 88 48 10 352 344 342 341 339 338 336 336 334 333 331 330 329 328 324 321 316 313 310 305 301 298 295 291 289 288 287 294 299 296 292 296
259 281 261 273 113 109 84 66 78 76 63 48 81 106 84 43 4 350 346 342 340 338 336 335 334 332 332 332 331 331 330 328 326 323 318 311 303 299 297 292 287 287 284 286 287 289 287 287 283
286 280 332 55 122 140 108 49 63 70 50 38 358 37 96 15 355 345 340 337 337 338 337 335 333 333 334 333 332 331 332 330 329 327 323 317 311 303 294 290 287 284 283 283 282 281 280 278 281
297 271 216 30 172 112 125 86 59 36 53 83 2 44 6 351 340 337 337 337 339 338 338 336 336 333 333 333 330 330 329 331 331 330 329 327 323 315 306 294 289 285 284 283 281 277 274 272 273
308 259 73 40 185 126 139 115 83 94 90 69 72 50 2 338 337 338 338 339 340 340 341 340 338 335 333 331 330 331 331 331 331 330 329 329 327 323 314 305 295 287 286 281 279 276 269 268 268
358 331 46 21 93 131 129 110 126 123 70 57 45 21 356 345 346 342 340 340 340 339 339 340 338 336 333 331 331 330 328 329 331 331 332 331 325 322 319 311 302 295 289 283 277 270 268 266 263
24 75 108 78 94 112 109 103 117 132 67 35 10 353 349 347 346 346 344 341 338 337 339 340 339 338 336 333 330 327 328 328 328 329 328 328 328 324 320 316 319 312 300 294 286 277 263 257 257
107 78 102 102 111 122 109 105 79 61 78 25 355 342 348 348 351 345 342 339 339 338 341 340 342 339 335 334 332 327 328 329 328 326 324 326 319 321 318 313 311 317 310 299 290 284 275 266 260
92 103 98 104 102 105 111 88 96 83 70 4 338 355 353 351 348 342 343 341 339 341 342 343 343 341 337 335 332 330 328 327 324 321 320 318 316 315 313 308 307 306 304 309 303 290 278 272 266
118 112 113 116 115 126 117 116 206 73 334 347 352 356 356 349 347 342 346 343 344 342 345 346 345 343 338 338 335 331 330 327 325 325 317 314 308 312 313 310 304 298 293 297 303 305 296 278 269
122 113 124 146 145 139 145 135 78 44 306 352 354 353 352 352 348 351 348 345 346 345 346 345 346 343 342 339 336 334 331 333 331 331 323 321 326 320 313 308 304 296 293 284 291 291 297 283 264
151 164 178 168 177 160 266 95 111 48 355 355 344 355 355 353 353 356 351 351 350 348 347 348 349 347 346 343 340 338 336 334 331 327 320 324 323 321 320 311 303 301 292 285 277 283 291 297 293
191 298 150 161 206 151 226 4 136 204 352 351 355 353 356 353 357 358 355 354 354 352 349 351 351 349 348 345 342 339 336 335 331 327 325 326 323 323 317 322 318 305 294 285 274 271 273 284 294
336 290 131 300 177 222 235 230 163 184 338 351 350 358 353 353 357 358 356 356 356 355 353 353 351 349 348 346 343 340 337 336 333 329 328 330 328 325 320 320 315 318 301 287 275 269 262 267 283
312 307 326 95 138 257 244 226 192 197 281 356 352 354 352 354 354 357 359 357 356 359 357 356 354 352 351 349 346 340 338 337 332 331 333 328 327 331 326 322 318 310 306 294 286 275 254 258 261
282 294 63 110 169 245 234 227 189 210 265 343 353 348 351 350 356 359 358 358 358 358 356 354 354 353 353 348 341 337 334 338 336 337 333 328 330 325 331 327 323 321 304 293 296 282 261 245 251
31 344 334 308 172 245 269 235 189 216 212 301 358 0 357 354 352 356 356 358 358 359 355 353 353 352 350 348 342 340 337 337 339 341 332 329 332 329 323 334 333 322 317 298 294 283 270 252 236
285 4 291 250 232 338 205 330 184 167 195 13 359 5 357 354 355 354 356 356 356 358 353 352 352 353 349 348 344 344 339 333 335 335 329 332 330 328 332 330 333 332 324 303 296 273 280 252 229
11 331 294 243 238 302 182 258 110 170 200 355 360 360 356 354 357 357 358 352 355 354 352 352 353 353 349 347 347 343 337 334 334 338 335 340 332 331 332 333 332 335 330 314 305 309 292 250 223
343 255 210 234 260 239 108 286 137 147 28 352 353 351 356 355 357 357 354 352 352 353 353 354 354 353 350 348 349 347 344 341 341 340 338 329 332 330 332 331 333 331 333 326 313 318 311 236 228
252 275 265 226 215 351 118 253 52 126 65 4 345 348 351 356 356 355 353 354 345 350 353 355 355 352 350 351 350 350 346 344 343 344 337 329 331 331 331 331 329 331 326 330 317 310 298 257 235
354 334 0 299 323 325 144 276 102 128 130 18 349 345 352 355 357 353 353 353 345 349 351 353 353 350 351 352 351 350 349 349 347 346 342 335 331 334 335 331 331 335 327 328 318 316 284 247 262
43 353 18 279 219 273 199 119 150 167 258 12 351 354 357 354 354 352 351 356 349 352 351 350 350 350 352 352 351 351 353 353 340 341 350 344 339 337 342 339 333 336 336 324 317 322 327 300 268
338 50 244 195 324 314 304 305 57 181 347 357 356 352 355 351 353 352 350 353 351 352 350 348 349 349 349 349 350 351 357 350 338 337 353 356 347 344 352 349 349 355 7 357 327 342 329 323 227
179 192 206 282 296 303 310 83 53 104 25 352 349 350 354 351 351 349 348 348 351 352 350 349 350 350 350 350 349 352 357 353 344 348 355 358 353 352 1 1 8 23 39 32 360 356 6 355 304
306 297 291 279 152 266 274 305 112 102 38 346 323 346 350 350 352 348 345 358 347 352 352 351 349 350 350 349 350 357 354 354 353 355 357 0 2 3 7 11 15 25 34 32 21 5 8 1 7